Simultaneous Nadir Overpasses (SNOs) Predictions

Prediction of SNOs between AQUA and NPP Satellite Orbit:

Table of predicted SNOs for the next 14.0 days since TLE Epoch: 12/5/2014
Index Date (AQUA) Time (AQUA) Lat,Lon (AQUA) SZA (AQUA ) Date (NPP) Time (NPP) Lat,Lon (NPP) SZA (NPP ) Distance(km) Time Diff (sec)
1 12/07/2014 16:59:44 -50.83, -40.84 39.66 12/07/2014 16:59:12 -50.83, -40.83 39.60 0.65 32
2 12/07/2014 17:46:05 61.53, 132.78 132.03 12/07/2014 17:46:46 61.54, 132.80 131.95 0.98 41
3 12/10/2014 09:15:19 -54.21, 76.60 41.79 12/10/2014 09:15:05 -54.21, 76.60 41.76 0.37 14
4 12/10/2014 10:02:13 62.95,-110.28 131.20 12/10/2014 10:03:13 62.94,-110.30 131.12 1.17 60
5 12/13/2014 00:44:33 46.44, 21.49 144.09 12/13/2014 00:43:25 46.44, 21.53 144.23 3.00 68
6 12/13/2014 01:30:41 -58.29,-165.28 44.66 12/13/2014 01:30:45 -58.30,-165.26 44.68 1.24 4
7 12/13/2014 02:14:38 76.32, 26.47 119.04 12/13/2014 02:15:51 76.19, 27.38 118.82 28.27 73
8 12/15/2014 17:00:02 50.07, 138.81 141.90 12/15/2014 16:59:13 50.07, 138.82 142.00 0.69 49
9 12/15/2014 17:46:44 -59.87, -48.41 45.67 12/15/2014 17:47:08 -59.87, -48.44 45.70 1.89 24
10 12/18/2014 09:15:18 54.47,-103.27 138.88 12/18/2014 09:14:48 54.47,-103.26 138.93 0.92 30




NCC Satellite Simultaneous Nadir Overpasses (SNOs) Prediction Service
